Location: Newark
(34.6283°N, 36.0776°E)
Time: 15:14:12
(UTC+00:00)

Vanguard 2 Rocket - Visible Passes

Search period start: 19 September 2019 00:00
Search period end: 29 September 2019 00:00
Orbit: 554 x 3327 km, 32.9° (Epoch: 19 September)

Date Brightness Start Highest point End Pass type
(mag) Time Alt. Az. Time Alt. Az. Time Alt. Az.
19 Sep 5.9 17:09:55 10° WSW 17:14:26 58° S 17:14:51 54° SE visible
20 Sep 6.7 16:10:00 10° WSW 16:15:16 47° SSE 16:18:45 13° E visible
20 Sep 8.7 18:23:47 10° W 18:24:33 15° W 18:24:33 15° W visible
21 Sep 6.0 17:24:07 10° W 17:28:26 67° SSW 17:28:26 67° SSW visible
22 Sep 6.3 16:24:01 10° WSW 16:29:32 63° S 16:32:18 20° E visible
22 Sep 9.1 18:38:05 10° W 18:38:06 10° W 18:38:06 10° W visible
23 Sep 6.8 17:38:23 10° W 17:41:58 48° WSW 17:41:58 48° WSW visible
24 Sep 6.2 16:38:13 10° W 16:43:49 73° S 16:45:48 30° E visible
25 Sep 7.6 17:52:41 10° W 17:55:28 31° WSW 17:55:28 31° WSW visible
26 Sep 6.2 16:52:29 10° W 16:58:05 71° S 16:59:18 45° ESE visible
27 Sep 6.7 15:51:46 10° W 15:58:48 76° S 16:03:09 11° E visible
27 Sep 8.3 18:07:03 10° W 18:08:57 21° WSW 18:08:57 21° WSW visible
28 Sep 6.3 17:06:47 10° W 17:12:19 58° SSW 17:12:49 54° SSE visible
